Temp
62 61 60 61 61 61 61 61 61 61 61 61 61 61 61 61 60 59 59 60 59 59 59 59 59 59 60 59 58 57 56 58 58 58 60 60 59 58 59 61 61 60 59
62 61 60 60 60 60 61 61 60 61 61 62 62 62 62 62 61 60 60 60 60 59 59 60 61 60 59 59 58 56 56 57 60 57 59 58 57 57 57 58 59 60 59
62 61 60 60 60 60 61 61 61 60 61 62 62 62 62 62 61 61 61 61 61 62 61 61 61 59 58 58 56 57 58 58 60 58 57 58 58 58 57 57 56 56 58
62 60 60 59 60 60 61 61 61 62 61 61 61 63 62 62 62 62 61 60 62 62 62 61 61 60 59 59 58 59 59 59 59 58 57 57 57 57 57 56 55 56 56
62 60 60 60 61 61 61 61 61 62 63 66 64 63 61 61 62 61 60 60 60 61 61 61 61 60 59 59 60 60 59 58 58 57 56 56 56 56 55 57 55 55 54
62 61 61 61 61 60 61 61 60 60 62 62 62 59 58 59 49 53 58 60 59 60 59 60 60 58 56 54 56 57 59 59 58 59 57 56 56 56 56 55 54 54 51
62 63 64 62 61 60 61 60 59 59 59 58 58 57 56 55 46 48 52 59 58 60 59 60 60 59 57 58 53 54 54 54 58 62 58 57 56 57 57 56 56 55 54
62 64 63 63 61 60 60 59 57 57 58 56 56 56 55 54 46 47 51 59 58 59 60 60 59 58 58 58 59 58 59 60 59 61 60 59 59 59 59 58 55 53 53
63 63 64 63 61 60 59 58 57 56 57 56 55 55 55 54 46 47 55 60 60 60 61 60 59 58 48 49 58 56 56 55 51 50 50 48 47 49 54 57 54 53 51
64 64 64 63 61 60 59 58 57 58 59 57 56 55 52 55 46 48 56 60 59 58 59 57 52 55 46 49 59 58 55 55 55 55 54 52 53 52 52 58 58 54 51
66 65 63 62 61 60 59 58 57 59 60 58 56 54 55 55 53 46 50 57 58 58 57 57 55 45 45 46 52 59 56 57 54 58 57 56 57 59 57 57 58 57 52
65 65 62 61 64 61 59 57 57 57 56 55 56 53 57 57 47 46 46 50 52 58 58 57 52 44 44 45 51 45 47 54 59 57 57 56 57 56 56 55 55 55 54
64 62 60 61 61 60 58 59 59 56 58 57 57 57 56 57 55 45 43 45 49 57 58 52 43 43 43 45 44 45 50 59 59 57 57 57 57 55 53 54 54 56 55
62 60 61 60 59 59 59 61 60 58 58 60 58 56 57 56 56 55 53 52 48 51 49 51 49 49 49 50 51 55 58 58 57 57 56 54 53 53 53 53 53 52 53
62 62 61 60 59 58 59 59 59 57 59 59 61 60 57 55 57 52 52 54 55 52 53 55 57 56 55 56 58 57 57 57 57 55 56 54 54 53 53 53 53 51 51
61 62 61 59 59 58 57 55 41 45 48 48 48 54 57 50 44 43 43 43 43 44 55 56 56 57 56 57 57 58 57 54 56 56 56 59 58 56 54 52 52 51 50
63 62 61 60 59 57 55 56 54 49 43 43 43 46 48 47 41 42 41 40 41 46 53 56 57 57 57 58 59 59 58 57 56 57 56 57 55 55 53 53 53 52 51
63 53 62 61 60 58 57 56 56 54 54 54 43 45 42 42 41 40 40 44 51 50 53 55 58 59 59 59 60 59 59 55 57 57 56 56 55 56 54 55 55 55 54
63 62 64 62 61 58 57 55 56 56 57 55 50 46 41 39 39 38 41 55 54 53 53 53 56 58 60 61 61 60 57 57 57 57 57 56 56 56 56 56 56 44 47
64 56 59 62 58 58 57 55 55 55 56 55 54 54 48 50 53 52 51 54 55 54 54 54 55 56 57 58 57 57 56 54 55 57 57 57 57 57 57 56 55 53 51
66 60 53 62 61 61 59 58 57 55 55 55 57 53 42 56 55 54 54 54 56 57 57 56 56 56 56 57 56 56 56 57 56 56 55 55 56 55 57 57 56 55 55
66 63 62 64 63 62 61 61 58 58 57 56 56 52 37 55 57 57 57 57 58 59 60 59 59 59 59 59 59 58 58 58 58 57 57 57 57 57 57 56 56 55 54
63 64 63 62 63 54 56 61 60 59 59 59 58 55 48 54 58 58 59 60 59 60 60 60 61 61 61 62 62 62 61 61 62 61 60 60 59 59 59 57 57 56 54
63 62 63 63 61 59 59 61 61 53 61 61 60 59 55 56 59 60 61 61 61 61 61 60 62 63 62 62 63 64 65 65 64 63 62 61 61 57 60 59 59 58 57
62 62 61 59 59 58 58 58 59 60 62 63 62 61 60 59 59 61 62 62 61 61 61 62 62 62 61 62 63 62 57 45 58 55 63 62 61 60 60 60 59 57 55
58 60 59 59 58 58 58 57 57 58 60 63 63 62 62 60 61 61 62 62 61 61 62 62 62 62 63 63 62 57 46 44 48 43 60 61 61 61 61 59 58 57 54
MSLP
1001.72 1002.29 1002.77 1003.12 1003.34 1003.62 1003.95 1004.20 1004.41 1004.73 1005.03 1005.33 1005.67 1005.88 1006.06 1006.20 1006.50 1006.69 1006.82 1006.91 1007.08 1007.19 1007.22 1007.33 1007.46 1007.49 1007.71 1008.08 1008.13 1008.52 1008.95 1009.24 1010.07 1010.90 1011.05 1011.16 1011.73 1011.83 1012.06 1012.39 1012.66 1013.68 1014.32
1001.77 1002.38 1002.87 1003.23 1003.53 1003.77 1004.00 1004.13 1004.37 1004.77 1005.05 1005.36 1005.64 1005.91 1006.15 1006.16 1006.42 1006.68 1006.83 1006.83 1007.01 1007.07 1007.22 1007.28 1007.30 1007.48 1007.58 1007.82 1008.13 1008.60 1009.04 1009.46 1009.83 1010.77 1011.61 1012.00 1012.60 1013.09 1013.37 1013.52 1013.91 1014.37 1015.26
1001.89 1002.50 1003.08 1003.40 1003.62 1003.84 1004.04 1004.17 1004.45 1004.86 1005.13 1005.42 1005.66 1005.97 1006.07 1006.27 1006.36 1006.50 1006.61 1006.78 1006.92 1006.99 1007.17 1007.28 1007.32 1007.53 1007.77 1007.93 1008.34 1008.79 1009.20 1009.71 1010.29 1010.86 1011.80 1012.54 1013.21 1013.74 1014.20 1014.82 1015.35 1015.60 1016.36
1001.97 1002.57 1003.13 1003.40 1003.56 1003.78 1003.98 1004.25 1004.53 1004.88 1005.12 1005.39 1005.58 1005.90 1006.09 1006.22 1006.38 1006.35 1006.50 1006.74 1006.79 1006.86 1007.09 1007.30 1007.44 1007.55 1007.74 1008.14 1008.67 1008.94 1009.45 1010.10 1010.66 1011.36 1012.28 1012.98 1013.57 1014.42 1014.77 1015.27 1016.14 1016.75 1017.55
1002.03 1002.63 1003.06 1003.34 1003.61 1003.82 1004.11 1004.31 1004.61 1004.91 1004.96 1005.16 1005.57 1005.92 1006.29 1006.41 1006.46 1006.44 1006.68 1006.87 1007.02 1007.14 1007.26 1007.31 1007.54 1007.83 1008.05 1008.22 1008.73 1009.12 1009.66 1010.22 1011.06 1011.71 1012.44 1013.21 1013.87 1014.57 1015.09 1015.75 1016.29 1017.29 1018.24
1002.00 1002.60 1003.03 1003.40 1003.70 1004.01 1004.32 1004.58 1004.78 1004.98 1005.03 1005.36 1005.88 1006.36 1006.69 1006.76 1006.68 1006.63 1006.72 1007.03 1007.17 1007.33 1007.55 1007.63 1007.79 1008.11 1008.41 1008.50 1008.78 1009.05 1009.45 1010.02 1010.88 1011.51 1012.41 1013.09 1013.99 1014.69 1015.49 1016.08 1016.68 1017.55 1018.82
1001.94 1002.48 1002.95 1003.41 1003.82 1004.20 1004.48 1004.74 1004.98 1005.22 1005.51 1006.01 1006.38 1006.68 1007.05 1007.14 1007.06 1006.81 1006.87 1007.16 1007.43 1007.58 1007.80 1007.78 1007.96 1008.24 1008.35 1008.75 1009.01 1009.41 1009.92 1010.40 1010.76 1011.19 1011.97 1013.01 1013.86 1014.66 1015.34 1016.36 1017.23 1017.82 1018.46
1001.90 1002.39 1003.02 1003.41 1003.84 1004.32 1004.74 1004.98 1005.27 1005.56 1005.92 1006.29 1006.64 1006.99 1007.27 1007.46 1007.28 1007.05 1007.17 1007.41 1007.65 1007.82 1007.98 1008.07 1008.24 1008.38 1008.54 1008.86 1009.23 1009.78 1010.37 1010.93 1011.29 1011.77 1012.41 1013.07 1014.00 1014.75 1015.29 1016.27 1017.34 1018.24 1019.26
1001.85 1002.41 1002.94 1003.30 1003.87 1004.41 1004.93 1005.20 1005.47 1005.81 1006.21 1006.56 1006.93 1007.25 1007.47 1007.60 1007.41 1007.32 1007.47 1007.70 1007.85 1008.04 1008.24 1008.39 1008.51 1008.84 1009.00 1009.06 1009.37 1010.03 1010.77 1011.65 1012.02 1012.53 1013.12 1013.76 1014.41 1015.13 1015.59 1016.49 1017.70 1018.41 1019.66
1001.69 1002.22 1002.73 1003.21 1003.83 1004.41 1004.91 1005.31 1005.49 1005.84 1006.21 1006.72 1007.16 1007.34 1007.64 1007.63 1007.50 1007.58 1007.67 1007.89 1008.13 1008.37 1008.69 1009.01 1009.16 1009.43 1009.62 1009.72 1009.92 1010.35 1010.97 1011.87 1012.59 1013.62 1014.41 1014.98 1015.22 1015.86 1016.35 1016.73 1017.32 1018.06 1019.17
1001.35 1002.05 1002.71 1003.24 1003.79 1004.35 1004.97 1005.39 1005.66 1006.07 1006.46 1006.88 1007.29 1007.63 1007.81 1007.87 1007.91 1007.96 1008.02 1008.32 1008.46 1008.75 1009.13 1009.58 1009.93 1010.04 1010.24 1010.44 1010.64 1011.01 1011.50 1012.18 1013.11 1013.77 1014.63 1015.40 1015.93 1016.52 1016.93 1017.21 1017.48 1018.02 1018.53
1001.27 1002.00 1002.68 1003.25 1003.85 1004.44 1005.01 1005.58 1005.92 1006.26 1006.71 1007.20 1007.50 1007.77 1007.92 1008.10 1008.32 1008.42 1008.40 1008.47 1008.80 1009.01 1009.43 1009.87 1010.42 1010.55 1010.78 1011.01 1011.47 1011.89 1012.28 1012.71 1013.48 1014.26 1015.11 1015.81 1016.45 1016.92 1017.22 1017.38 1017.83 1018.14 1018.23
1001.32 1002.01 1002.65 1003.29 1003.84 1004.48 1005.17 1005.73 1006.18 1006.47 1006.80 1007.26 1007.58 1007.92 1008.19 1008.33 1008.52 1008.71 1008.77 1008.87 1009.09 1009.43 1009.68 1010.12 1010.69 1010.97 1011.36 1011.61 1012.07 1012.50 1012.78 1013.17 1013.75 1014.59 1015.38 1016.05 1016.40 1016.92 1017.35 1017.71 1017.99 1018.12 1018.29
1001.36 1002.08 1002.69 1003.31 1004.00 1004.65 1005.28 1005.79 1006.10 1006.48 1006.77 1007.01 1007.39 1007.75 1008.22 1008.52 1008.71 1009.10 1009.44 1009.53 1009.62 1009.97 1010.31 1010.75 1011.11 1011.39 1011.74 1012.23 1012.68 1012.93 1013.27 1013.62 1013.82 1014.44 1015.39 1016.08 1016.70 1017.27 1017.54 1017.62 1017.97 1018.34 1018.78
1001.21 1001.93 1002.61 1003.33 1003.95 1004.75 1005.39 1005.92 1006.02 1006.24 1006.30 1006.67 1006.95 1007.42 1008.13 1008.62 1008.83 1009.08 1009.40 1009.82 1010.05 1010.37 1010.72 1011.10 1011.31 1011.66 1012.18 1012.60 1012.88 1013.17 1013.56 1013.86 1014.26 1014.73 1015.44 1016.21 1016.78 1017.16 1017.45 1017.54 1017.87 1018.53 1018.90
1001.26 1001.90 1002.47 1003.27 1003.98 1004.64 1005.39 1006.11 1006.30 1006.22 1006.43 1006.73 1006.93 1007.28 1007.92 1008.27 1008.66 1009.27 1009.62 1009.89 1010.24 1010.53 1010.93 1011.26 1011.55 1011.91 1012.24 1012.60 1012.91 1013.36 1013.79 1014.10 1014.36 1014.73 1015.24 1015.70 1016.40 1016.90 1017.25 1017.60 1017.85 1018.20 1018.54
1000.80 1001.63 1002.35 1003.05 1003.83 1004.52 1005.22 1005.73 1006.28 1006.80 1006.86 1007.00 1007.09 1007.41 1007.77 1008.16 1008.71 1009.23 1009.80 1010.08 1010.54 1010.70 1011.11 1011.38 1011.55 1011.84 1012.18 1012.55 1012.87 1013.22 1013.63 1014.00 1014.30 1014.71 1015.20 1015.65 1016.09 1016.56 1016.95 1017.22 1017.46 1017.76 1018.14
1000.27 1000.97 1001.83 1002.60 1003.41 1004.18 1004.70 1005.09 1005.61 1006.34 1006.80 1007.32 1007.58 1007.74 1007.89 1008.18 1008.71 1009.30 1010.01 1010.51 1011.21 1011.15 1011.18 1011.38 1011.52 1011.80 1012.12 1012.44 1012.75 1013.03 1013.45 1014.00 1014.32 1014.66 1015.02 1015.35 1015.69 1016.04 1016.49 1016.80 1017.05 1017.17 1017.44
1000.06 1000.89 1001.50 1002.23 1002.91 1003.51 1004.15 1004.62 1005.04 1005.67 1006.23 1006.82 1007.65 1008.13 1008.48 1008.83 1009.31 1009.88 1010.12 1010.16 1010.58 1010.83 1010.97 1011.28 1011.53 1011.76 1011.92 1012.18 1012.54 1012.89 1013.22 1013.55 1013.87 1014.29 1014.62 1014.90 1015.12 1015.34 1015.50 1015.93 1016.40 1016.71 1017.11
999.74 1000.13 1001.10 1001.92 1002.74 1003.40 1003.96 1004.49 1005.05 1005.46 1005.97 1006.57 1007.15 1007.78 1008.49 1008.89 1009.46 1009.87 1010.09 1009.98 1010.09 1010.30 1010.55 1010.85 1011.14 1011.37 1011.60 1011.80 1012.12 1012.42 1012.80 1013.22 1013.54 1013.72 1013.92 1014.16 1014.50 1014.86 1015.20 1015.50 1015.78 1016.03 1016.17
999.46 1000.25 1000.80 1001.75 1002.44 1003.02 1003.54 1004.09 1004.56 1005.16 1005.68 1006.22 1006.65 1007.25 1007.45 1008.11 1008.60 1009.02 1009.36 1009.54 1009.55 1009.71 1009.94 1010.22 1010.49 1010.78 1011.09 1011.42 1011.75 1012.15 1012.50 1012.74 1013.01 1013.30 1013.62 1013.81 1014.04 1014.32 1014.30 1014.44 1014.77 1015.06 1015.28
999.31 1000.10 1000.74 1001.31 1002.03 1002.76 1003.30 1003.68 1004.21 1004.67 1005.22 1005.77 1006.29 1007.07 1007.55 1007.88 1007.94 1008.08 1008.31 1008.56 1008.72 1008.90 1009.12 1009.44 1009.77 1010.01 1010.26 1010.51 1010.74 1011.07 1011.41 1011.71 1011.98 1012.26 1012.60 1012.85 1013.05 1013.17 1013.28 1013.50 1013.75 1014.01 1014.28
998.62 999.55 1000.43 1001.27 1001.71 1002.14 1002.82 1003.26 1003.72 1004.14 1004.57 1005.00 1005.52 1006.24 1007.01 1007.17 1007.08 1007.16 1007.20 1007.27 1007.65 1007.97 1008.24 1008.59 1008.88 1009.09 1009.22 1009.37 1009.47 1009.84 1010.14 1010.25 1010.40 1010.87 1011.32 1011.56 1011.73 1011.91 1012.11 1012.39 1012.62 1012.88 1013.17
998.50 999.28 999.91 1000.57 1001.15 1001.99 1002.66 1002.92 1003.10 1003.34 1003.68 1004.06 1004.55 1005.07 1005.59 1005.83 1005.90 1005.84 1005.93 1006.25 1006.60 1006.87 1007.22 1007.48 1007.67 1007.81 1008.01 1008.19 1008.30 1008.46 1008.59 1008.80 1009.15 1009.42 1009.86 1010.20 1010.39 1010.56 1010.73 1010.92 1011.13 1011.31 1011.59
999.08 999.44 999.97 1000.47 1000.82 1001.47 1002.05 1002.32 1002.60 1002.75 1002.98 1003.26 1003.65 1004.02 1004.26 1004.56 1004.83 1004.83 1004.88 1005.21 1005.49 1005.82 1005.99 1006.20 1006.44 1006.60 1006.73 1006.86 1006.98 1007.09 1007.24 1007.58 1007.78 1008.03 1008.46 1008.90 1009.09 1009.18 1009.34 1009.46 1009.72 1009.94 1010.19
1001.66 1000.98 1000.92 1001.01 1001.40 1001.71 1002.01 1002.23 1002.35 1002.56 1002.67 1002.69 1002.79 1003.01 1003.24 1003.47 1003.57 1003.75 1003.85 1004.12 1004.36 1004.55 1004.69 1004.89 1004.98 1005.07 1005.19 1005.18 1005.20 1005.32 1005.67 1005.95 1006.32 1006.69 1006.89 1007.29 1007.49 1007.65 1007.89 1008.08 1008.33 1008.65 1008.96
Wind_Speed
8 7 7 6 6 6 5 5 6 5 6 5 5 4 3 4 3 3 3 4 4 4 3 5 4 2 3 3 3 3 3 5 8 3 3 5 7 10 9 9 13 13 16
7 7 6 6 6 5 5 5 5 5 4 5 4 3 3 4 3 4 4 4 5 5 5 4 3 2 3 3 4 4 5 4 10 10 3 3 7 10 10 10 8 11 16
7 7 6 6 6 6 6 5 5 6 5 4 4 4 4 3 3 3 5 5 4 4 4 3 3 4 3 3 4 6 6 5 7 8 6 4 5 8 11 10 10 12 12
7 7 7 7 6 6 6 5 5 5 6 5 5 4 3 3 3 3 4 3 3 3 4 4 4 4 4 6 5 9 9 9 9 8 8 7 6 7 9 11 9 9 10
7 7 7 6 6 5 5 5 5 4 4 5 5 5 4 4 2 3 4 4 4 4 4 5 5 5 6 7 7 9 11 8 9 9 7 7 8 9 10 6 9 9 6
7 7 6 6 6 5 5 5 5 4 5 7 6 6 6 2 4 3 5 5 4 4 4 5 4 4 5 8 9 10 12 14 11 9 7 9 9 8 9 10 11 9 5
8 7 7 7 6 6 5 6 6 6 6 7 6 6 5 2 5 3 6 4 4 4 4 4 3 2 5 5 8 11 11 9 9 12 13 11 12 13 12 11 9 6 5
7 8 6 6 6 6 5 6 5 4 5 5 5 5 5 1 3 7 8 5 5 4 4 4 5 4 4 6 8 9 10 9 9 8 11 13 12 12 11 11 9 8 9
8 8 7 7 7 6 6 6 5 5 4 4 4 5 4 2 4 8 7 4 4 5 4 5 5 6 7 10 11 12 11 9 12 15 14 15 15 14 13 11 8 10 5
9 8 7 7 7 7 6 6 4 4 4 4 4 4 3 2 3 6 6 3 4 4 5 5 9 7 8 11 11 13 13 11 14 14 12 13 13 12 11 6 9 10 6
8 7 7 7 7 7 6 3 5 5 5 5 5 3 3 3 4 3 7 4 3 4 4 4 3 10 10 12 10 9 11 12 14 12 11 9 9 8 4 5 5 7 4
9 8 8 7 6 6 7 4 6 6 6 5 5 3 1 3 7 3 6 7 5 5 4 4 4 9 12 13 11 15 15 13 10 9 9 8 7 5 3 4 6 5 3
9 8 7 7 6 7 7 8 6 5 5 5 6 3 1 2 2 4 5 7 7 5 4 7 11 10 12 12 17 14 11 8 10 9 8 7 5 5 5 4 4 3 3
9 8 8 8 7 6 5 6 7 5 5 6 5 5 3 2 2 3 3 4 7 7 8 6 6 8 9 9 9 7 6 6 8 10 7 4 4 4 3 3 3 3 2
9 9 8 6 7 6 5 4 6 4 7 7 6 5 5 4 4 6 7 4 5 6 7 4 5 4 6 6 5 5 5 6 7 4 7 5 4 4 3 2 2 2 2
9 8 7 7 5 5 6 3 7 2 9 8 5 7 4 5 10 9 9 11 13 11 4 4 4 5 6 5 5 6 4 4 5 6 5 7 7 6 4 2 2 4 4
11 9 7 7 6 6 4 5 5 5 5 4 7 10 11 9 10 10 10 13 11 8 3 4 5 6 7 6 5 6 6 5 5 5 6 6 4 4 4 4 4 4 4
11 12 10 8 7 6 6 5 4 5 4 4 4 3 7 10 11 11 13 11 3 0 3 6 6 5 6 7 6 6 7 4 6 5 5 5 4 4 4 5 6 7 6
10 9 8 8 7 8 6 4 4 4 4 4 3 3 6 8 10 9 9 3 5 4 4 4 6 7 7 8 9 8 6 7 7 6 6 6 7 7 8 7 6 6 5
10 15 11 8 6 6 5 5 4 4 4 4 4 4 4 4 4 4 5 3 4 4 4 5 5 6 7 8 8 7 7 6 6 7 7 7 6 6 7 6 6 7 8
8 8 10 7 7 7 7 7 5 5 5 5 5 5 11 8 8 8 7 7 5 6 6 5 5 6 6 5 5 5 5 5 5 5 5 5 6 7 8 8 7 8 8
6 7 8 8 7 7 7 6 6 6 6 6 4 4 8 4 6 8 9 9 9 7 6 7 7 7 7 8 8 9 9 9 8 8 8 8 8 9 8 8 8 8 8
8 9 8 4 5 7 6 7 7 7 7 7 6 6 6 8 7 8 9 9 9 9 7 7 8 7 7 8 9 9 10 11 11 9 10 10 10 9 9 9 10 9 9
7 7 8 7 5 5 5 6 6 8 9 9 8 8 8 9 11 11 10 9 9 9 9 9 10 12 10 9 9 10 11 10 8 10 13 10 11 10 10 11 11 13 11
3 5 6 6 6 6 6 6 7 8 9 8 8 8 8 9 10 11 10 9 9 10 11 11 11 14 17 17 14 15 14 13 13 11 10 12 13 14 12 12 12 12 11
11 9 8 7 5 3 1 3 4 4 6 7 7 7 9 9 10 10 10 10 10 11 12 11 14 19 19 17 22 21 15 16 16 15 13 12 13 12 11 13 14 11 9
Wind_Direction
135 130 135 141 137 149 147 153 149 140 143 147 171 172 178 158 172 183 209 179 164 157 155 172 199 204 183 173 120 113 103 105 120 82 63 86 65 80 80 96 115 123 116
138 132 138 134 145 153 150 151 146 146 150 166 168 150 213 187 170 200 191 171 164 169 171 153 98 134 182 155 123 123 118 113 130 120 100 78 87 90 92 92 105 119 115
128 134 137 151 156 159 151 142 141 147 153 155 146 167 187 167 189 183 185 179 184 193 189 185 149 130 117 114 111 116 114 101 115 116 115 93 93 106 97 91 99 106 108
137 145 153 171 161 160 141 148 145 161 160 164 169 173 169 158 163 154 134 156 180 181 177 151 122 115 120 122 121 124 121 116 118 113 115 114 111 109 111 117 114 114 127
144 151 162 158 150 141 135 139 142 164 177 156 130 124 130 129 127 139 123 125 114 93 93 109 117 120 119 134 144 137 133 125 129 128 127 131 132 134 131 114 111 110 75
148 147 147 145 139 141 135 132 129 128 118 112 115 123 113 89 8 92 146 135 129 103 101 99 118 120 105 133 138 138 148 142 146 138 136 141 137 125 126 129 124 129 104
142 149 156 149 143 145 136 131 127 128 110 107 115 117 114 101 3 105 138 119 124 126 124 126 113 102 130 129 127 122 114 98 129 151 142 146 134 139 134 134 131 124 110
142 143 146 153 141 138 135 128 121 115 116 121 130 128 126 103 6 122 118 112 112 117 121 116 112 108 114 125 131 130 134 130 128 133 133 135 134 136 130 127 115 96 90
150 153 164 152 142 145 145 148 130 126 116 131 127 144 141 112 40 132 119 118 101 100 95 102 105 100 116 120 116 112 107 94 80 90 102 106 111 112 120 122 119 124 115
161 166 161 147 147 152 145 149 131 133 129 121 128 136 111 124 27 146 116 116 103 87 77 79 105 113 105 103 114 118 115 122 115 110 106 97 106 107 105 118 146 147 134
154 143 144 145 148 144 140 133 129 122 114 118 124 122 103 31 57 93 105 96 110 101 95 100 96 109 100 94 100 112 116 120 119 119 116 113 120 131 111 126 142 155 135
145 146 144 149 145 140 138 121 122 125 123 123 133 122 76 74 40 96 131 129 132 116 113 103 109 120 110 98 92 114 112 117 117 118 121 124 135 146 146 159 157 156 129
147 144 142 140 130 138 133 148 138 129 141 151 161 143 146 56 57 146 134 130 112 98 108 118 126 118 97 100 123 124 115 124 128 130 142 148 159 147 126 105 102 149 71
149 140 143 144 136 131 126 158 160 153 156 170 171 162 147 159 112 107 118 97 85 82 100 101 108 98 96 117 126 123 125 136 148 147 147 127 111 124 124 148 142 136 120
152 149 152 141 144 137 132 161 167 178 179 176 185 170 162 185 192 167 149 139 126 109 105 110 114 112 126 137 131 118 124 135 135 119 131 129 127 147 176 170 122 120 160
149 151 155 148 145 148 157 134 40 55 179 185 164 146 159 160 151 160 149 127 132 138 97 136 121 120 135 141 137 133 128 130 139 132 138 168 179 183 179 152 145 183 199
158 158 148 147 154 160 160 168 161 32 74 190 189 171 170 169 164 155 148 138 154 127 121 156 152 152 152 160 156 159 171 178 152 157 163 175 164 163 164 189 203 208 228
160 158 161 162 164 166 180 186 151 164 174 171 64 182 187 169 167 147 134 114 151 85 138 162 169 169 165 169 174 185 187 160 178 175 170 177 175 177 187 209 207 219 223
155 164 167 164 170 173 171 168 170 158 168 147 115 83 82 87 96 110 166 145 175 188 167 163 168 181 186 193 198 199 189 193 192 186 190 188 192 195 215 218 221 221 210
169 165 163 165 154 159 163 162 161 165 153 162 166 158 130 122 156 166 190 198 177 188 180 180 178 181 189 192 193 189 187 183 195 200 208 208 208 210 224 218 212 215 215
164 163 164 162 169 174 174 177 170 159 169 173 195 172 172 167 176 186 193 205 199 201 196 192 186 186 187 191 185 186 198 210 210 210 203 201 192 208 217 218 218 221 233
149 163 169 175 170 172 183 178 173 174 174 181 190 163 166 204 181 192 197 203 208 208 200 195 199 200 198 197 197 199 204 209 207 203 206 207 206 216 216 215 218 218 220
145 152 168 181 183 177 168 177 178 181 189 196 185 166 177 201 199 199 206 208 203 205 204 198 205 210 206 204 201 201 206 213 214 206 213 219 220 219 217 222 223 226 218
139 152 168 176 158 163 184 196 190 191 192 194 190 189 190 201 209 210 210 208 208 211 206 205 213 214 213 212 214 214 218 219 208 208 206 216 225 226 224 224 225 228 229
101 159 168 166 158 170 179 188 197 200 203 200 199 202 201 201 209 219 217 212 212 213 215 213 214 219 222 221 216 212 215 209 213 207 209 220 223 220 220 226 229 231 226
34 47 54 54 45 27 207 210 220 206 213 214 208 204 206 203 213 217 219 214 215 216 218 219 222 221 223 224 227 225 212 208 210 210 211 215 222 226 226 229 229 226 219